This is the latest recevied weather packets stored in our database for station/object K6CED. If no packets are shown the sender has not sent any weather packets the latest 10 day(s).
| Time | Temp. | Humidity | Pressure | Rain* | Wind** | Luminosity | Snow |
|---|---|---|---|---|---|---|---|
| 1787585551 | 26.11° C | 48% | 1018.1 hPa | 0 mm | - | 347 W/m² | - |
| 1787585246 | 25.56° C | 50% | 1018.1 hPa | 0 mm | - | 323 W/m² | - |
| 1787584946 | 25° C | 51% | 1018 hPa | 0 mm | - | 296 W/m² | - |
| 1787584640 | 25° C | 52% | 1018 hPa | 0 mm | - | 286 W/m² | - |
| 1787584339 | 24.44° C | 52% | 1018.1 hPa | 0 mm | - | 264 W/m² | - |
| 1787584038 | 24.44° C | 51% | 1018.1 hPa | 0 mm | - | 242 W/m² | - |
| 1787583733 | 25° C | 50% | 1018.2 hPa | 0 mm | - | 227 W/m² | - |
| 1787583428 | 25.56° C | 50% | 1018.1 hPa | 0 mm | - | 214 W/m² | - |
| 1787583126 | 25° C | 50% | 1018.3 hPa | 0 mm | - | 201 W/m² | - |
| 1787582821 | 24.44° C | 51% | 1018 hPa | 0 mm | - | 183 W/m² | - |
| 1787582516 | 23.89° C | 52% | 1018 hPa | 0 mm | - | 168 W/m² | - |
| 1787582212 | 23.33° C | 52% | 1017.8 hPa | 0 mm | - | 150 W/m² | - |
| 1787581911 | 23.33° C | 52% | 1017.9 hPa | 0 mm | - | 133 W/m² | - |
| 1787581607 | 22.78° C | 53% | 1017.8 hPa | 0 mm | - | 116 W/m² | - |
| 1787581307 | 22.22° C | 56% | 1017.6 hPa | 0 mm | - | 97 W/m² | - |
| 1787581001 | 20.56° C | 58% | 1017.6 hPa | 0 mm | - | 89 W/m² | - |
| 1787580697 | 19.44° C | 61% | 1017.6 hPa | 0 mm | - | 61 W/m² | - |
| 1787580393 | 19.44° C | 61% | 1017.5 hPa | 0 mm | - | 40 W/m² | - |
| 1787580088 | 18.89° C | 61% | 1017.5 hPa | 0 mm | - | 36 W/m² | - |
| 1787579787 | 18.89° C | 62% | 1017.5 hPa | 0 mm | - | 32 W/m² | - |
| 1787579482 | 18.89° C | 63% | 1017.5 hPa | 0 mm | - | 27 W/m² | - |
| 1787579178 | 18.33° C | 63% | 1017.6 hPa | 0 mm | - | 24 W/m² | - |
| 1787578873 | 18.33° C | 63% | 1017.5 hPa | 0 mm | - | 20 W/m² | - |
| 1787578569 | 18.33° C | 63% | 1017.5 hPa | 0 mm | - | 15 W/m² | - |
| 1787578268 | 18.33° C | 63% | 1017.2 hPa | 0 mm | - | 11 W/m² | - |
* Rain latest hour (hover to see other rain measurements)
** Current wind speed in m/s (hover to see current wind gust speed)